Location: Suzhou
(31.3110°N, 120.6180°E)
Time: 18:01:36
(UTC+08:00)

DOVE 4 - Visible Passes

Search period start: 26 May 2024 00:00
Search period end: 05 June 2024 00:00
Orbit: 581 x 778 km, 97.7° (Epoch: 25 May)

Date Brightness Start Highest point End Pass type
(mag) Time Alt. Az. Time Alt. Az. Time Alt. Az.
26 May ? 21:08:06 10° NNE 21:12:52 57° E 21:12:52 57° E visible
26 May ? 22:47:26 10° NW 22:49:57 14° WNW 22:51:17 13° W visible
27 May ? 20:09:10 10° ENE 20:10:45 12° E 20:10:45 12° E visible
27 May ? 21:43:53 10° N 21:48:58 58° WNW 21:49:10 57° W visible
28 May ? 20:42:53 10° NE 20:47:02 31° E 20:47:02 31° E visible
28 May ? 22:20:24 10° NNW 22:24:32 25° WNW 22:25:27 23° W visible
29 May ? 21:18:08 10° NNE 21:23:18 76° E 21:23:18 76° E visible
29 May ? 22:59:07 10° NW 22:59:54 10° WNW 23:00:41 10° WNW visible
30 May ? 20:18:19 10° NE 20:21:09 17° E 20:21:09 17° E visible
30 May ? 21:54:06 10° N 21:59:01 44° WNW 21:59:34 43° W visible
31 May ? 20:52:42 10° NNE 20:57:23 40° E 20:57:23 40° E visible
31 May ? 22:30:54 10° NNW 22:34:30 19° WNW 22:35:49 18° W visible
01 Jun ? 21:28:10 10° N 21:33:22 83° WNW 21:33:38 79° SW visible
02 Jun ? 20:27:46 10° NE 20:31:26 21° E 20:31:26 21° E visible
02 Jun ? 22:04:20 10° N 22:08:58 34° WNW 22:09:51 32° W visible
03 Jun ? 21:02:34 10° NNE 21:07:36 52° E 21:07:39 52° ESE visible
03 Jun ? 22:41:33 10° NNW 22:44:21 15° WNW 22:46:04 13° W visible
04 Jun ? 20:04:22 10° ENE 20:05:27 11° E 20:05:27 11° E visible
04 Jun ? 21:38:13 10° N 21:43:19 64° WNW 21:43:51 60° WSW visible
